Change the Weather History Date:

Friday, February 15, 2013

  Actual Average Record
Temperature  
Mean Temperature 46 °F -  
Max Temperature 61 °F 54 °F 69 °F (2001)
Min Temperature 30 °F 34 °F 17 °F (2015)
Degree Days  
Heating Degree Days 20    
Moisture  
Dew Point 32 °F    
Average Humidity 84    
Maximum Humidity 100    
Minimum Humidity 28    
Precipitation  
Precipitation 0.00 in - - ()
Sea Level Pressure  
Sea Level Pressure 30.06 in    
Wind  
Wind Speed 2 mph (NW)    
Max Wind Speed 8 mph    
Max Gust Speed -    
Visibility 7 miles    
Events Fog    
Averages and records for this station are not official NWS values.
T = Trace of Precipitation, MM = Missing Value Source: NWS Daily Summary

Daily Weather History Graph

Daily Weather History Graph

Search for Another Location

Airport or City:

Trip Planner

Search our weather history database for the weather conditions in past years. The results will help you decide how hot, cold, wet, or windy it might be!

Date:

Astronomy

Feb. 15, 2013 Rise Set
Actual Time 7:03 AM EST 6:00 PM EST
Civil Twilight 6:37 AM EST 6:26 PM EST
Nautical Twilight 6:08 AM EST 6:56 PM EST
Astronomical Twilight 5:38 AM EST 7:25 PM EST
Moon 9:53 AM EST (2/15) 11:44 PM EST (2/15)
Length of Visible Light 11h 48m
Length of Day
10h 57m
Waxing Crescent, 30% of the Moon is Illuminated
Feb 15
Waxing Crescent
Feb 17
First Quarter
Feb 25
Full
Mar 4
Last Quarter
Mar 11
New

Hourly Weather History & Observations

Time (EST) Temp. Windchill Dew Point Humidity Pressure Visibility Wind Dir Wind Speed Gust Speed Precip Events Conditions
12:55 AM 31.5 °F - 31.1 °F 99% 30.10 in 7.0 mi North 2.3 mph - N/A   Clear
1:26 AM 30.2 °F 26.7 °F 30.2 °F 100% 30.09 in 2.5 mi North 3.5 mph - N/A   Clear
1:28 AM 30.2 °F - 30.2 °F 100% 30.09 in 1.5 mi North 2.3 mph - N/A   Clear
1:29 AM 30.2 °F - 30.2 °F 100% 30.09 in 1.2 mi NNW 2.3 mph - N/A   Clear
1:31 AM 30.2 °F - 30.2 °F 100% 30.09 in 1.0 mi NNW 2.3 mph - N/A Fog Fog
1:39 AM 30.2 °F 26.7 °F 30.2 °F 100% 30.09 in 1.0 mi North 3.5 mph - N/A Fog Light Freezing Fog
1:42 AM 30.2 °F 26.7 °F 30.2 °F 100% 30.09 in 1.0 mi NNW 3.5 mph - N/A Fog Light Freezing Fog
1:47 AM 30.2 °F - 30.2 °F 100% 30.09 in 1.0 mi NNW 2.3 mph - N/A Fog Light Freezing Fog
1:50 AM 30.2 °F - 30.2 °F 100% 30.09 in 1.2 mi NNW 2.3 mph - N/A Fog Light Freezing Fog
1:51 AM 30.2 °F - 30.2 °F 100% 30.09 in 1.2 mi NNW 1.2 mph - N/A   Mist
1:53 AM 30.2 °F - 30.2 °F 100% 30.09 in 1.5 mi NNW 1.2 mph - N/A   Mist
1:54 AM 30.2 °F - 30.2 °F 100% 30.09 in 1.8 mi NNW 1.2 mph - N/A   Mist
1:55 AM 30.7 °F - 30.7 °F 100% 30.09 in 1.8 mi NNW 1.2 mph - N/A   Mist
1:56 AM 30.2 °F - 30.2 °F 100% 30.09 in 2.0 mi Variable 1.2 mph - N/A   Mist
1:57 AM 30.2 °F - 30.2 °F 100% 30.09 in 2.5 mi Variable 1.2 mph - N/A   Mist
1:58 AM 30.2 °F - 30.2 °F 100% 30.09 in 2.5 mi NW 1.2 mph - N/A   Scattered Clouds
1:59 AM 30.2 °F - 30.2 °F 100% 30.09 in 3.0 mi NW 1.2 mph - N/A   Scattered Clouds
2:55 AM 30.2 °F - 30.0 °F 99% 30.08 in 10.0 mi NNW 2.3 mph - N/A   Clear
4:06 AM 30.2 °F - 30.2 °F 100% 30.09 in 10.0 mi NNW 2.3 mph - N/A   Clear
5:17 AM 30.2 °F - 30.2 °F 100% 30.08 in 10.0 mi Calm Calm - N/A   Clear
6:29 AM 30.2 °F 26.7 °F 30.2 °F 100% 30.11 in 10.0 mi SSE 3.5 mph - N/A   Clear
7:40 AM 30.2 °F - 30.2 °F 100% 30.12 in 10.0 mi SE 1.2 mph - N/A   Clear
7:58 AM 30.2 °F - 30.2 °F 100% 30.10 in 10.0 mi SE 1.2 mph - N/A   Clear
8:51 AM 37.4 °F 34.9 °F 35.6 °F 93% 30.13 in 10.0 mi NNW 3.5 mph - N/A   Clear
8:55 AM 37.9 °F 35.5 °F 36.1 °F 93% 30.12 in 10.0 mi NNW 3.5 mph - N/A   Clear
9:55 AM 45.9 °F 43.6 °F 37.6 °F 73% 30.12 in 10.0 mi NNW 4.6 mph - N/A   Clear
10:55 AM 53.2 °F - 38.3 °F 57% 30.11 in 10.0 mi Variable 1.2 mph - N/A   Clear
11:55 AM 57.4 °F - 32.0 °F 38% 30.09 in 10.0 mi SSE 5.8 mph - N/A   Clear
12:55 PM 58.6 °F - 30.2 °F 34% 30.06 in 10.0 mi Variable 1.2 mph - N/A   Clear
1:55 PM 60.8 °F - 27.9 °F 29% 30.02 in 10.0 mi WSW 8.1 mph - N/A   Clear
2:55 PM 60.4 °F - 27.0 °F 28% 30.00 in 10.0 mi South 3.5 mph - N/A   Clear
3:55 PM 61.2 °F - 28.4 °F 29% 29.98 in 10.0 mi WSW 8.1 mph - N/A   Clear
4:55 PM 60.4 °F - 28.6 °F 30% 29.97 in 10.0 mi West 3.5 mph - N/A   Clear
5:55 PM 57.7 °F - 30.7 °F 36% 29.96 in 10.0 mi WSW 1.2 mph - N/A   Clear
6:55 PM 48.2 °F - 40.1 °F 74% 29.98 in 10.0 mi SSE 3.5 mph - N/A   Clear
7:55 PM 45.0 °F - 38.5 °F 78% 29.99 in 10.0 mi Calm Calm - N/A   Clear
8:55 PM 42.3 °F - 39.2 °F 89% 29.99 in 10.0 mi SSE 1.2 mph - N/A   Clear
9:55 PM 40.3 °F - 37.6 °F 90% 29.98 in 10.0 mi SSE 1.2 mph - N/A   Clear
10:55 PM 37.8 °F - 36.1 °F 94% 29.97 in 10.0 mi WNW 1.2 mph - N/A   Clear
11:55 PM 37.2 °F - 36.0 °F 95% 29.95 in 10.0 mi SSE 1.2 mph - N/A   Clear